Silver Bay, MN

4:34 AM CDT on July 27, 2017 (GMT -0500)
Silver Bay Municipal

Weather History for KBFW - November, 2013

Change the Weather History Date:

Monday, November 4, 2013

  Actual Average Record
Temperature  
Mean Temperature 36 °F -  
Max Temperature 42 °F 39 °F 71 °F (2008)
Min Temperature 30 °F 25 °F 15 °F (2011)
Degree Days  
Heating Degree Days 29    
Moisture  
Dew Point 33 °F    
Average Humidity 79    
Maximum Humidity 93    
Minimum Humidity 57    
Precipitation  
Precipitation 0.30 in - - ()
Sea Level Pressure  
Sea Level Pressure 29.89 in    
Wind  
Wind Speed 7 mph (SSE)    
Max Wind Speed 14 mph    
Max Gust Speed 22 mph    
Visibility 9 miles    
Events Rain    
Averages and records for this station are not official NWS values.
T = Trace of Precipitation, MM = Missing Value Source: NWS Daily Summary

Daily Weather History Graph

Daily Weather History Graph

Search for Another Location

Airport or City:

Trip Planner

Search our weather history database for the weather conditions in past years. The results will help you decide how hot, cold, wet, or windy it might be!

Date:

Astronomy

Nov. 04, 2013 Rise Set
Actual Time 6:53 AM CST 4:44 PM CST
Civil Twilight 6:21 AM CST 5:16 PM CST
Nautical Twilight 5:45 AM CST 5:52 PM CST
Astronomical Twilight 5:09 AM CST 6:28 PM CST
Moon 8:08 AM CST (11/4) 5:44 PM CST (11/4)
Length of Visible Light 10h 54m
Length of Day
9h 50m
New Moon, 2% of the Moon is Illuminated
Nov 4
New Moon
Nov 9
First Quarter
Nov 17
Full
Nov 25
Last Quarter
Dec 2
New

Hourly Weather History & Observations

Time (CST) Temp. Windchill Dew Point Humidity Pressure Visibility Wind Dir Wind Speed Gust Speed Precip Events Conditions
12:13 AM 41.0 °F 37.1 °F 28.4 °F 61% 29.98 in 10.0 mi ESE 5.8 mph - N/A   Clear
12:33 AM 41.0 °F 35.8 °F 28.4 °F 61% 29.98 in 10.0 mi ESE 8.1 mph - N/A   Clear
12:53 AM 41.0 °F 35.8 °F 28.4 °F 61% 29.98 in 10.0 mi ESE 8.1 mph - N/A   Clear
1:13 AM 42.8 °F 38.6 °F 28.4 °F 57% 29.97 in 10.0 mi ESE 6.9 mph - N/A   Clear
1:33 AM 42.8 °F 38.6 °F 28.4 °F 57% 29.96 in 10.0 mi ESE 6.9 mph - N/A   Clear
1:53 AM 42.8 °F 40.1 °F 28.4 °F 57% 29.96 in 10.0 mi ESE 4.6 mph - N/A   Clear
2:13 AM 42.8 °F 38.0 °F 30.2 °F 61% 29.95 in 10.0 mi ESE 8.1 mph - N/A Rain Rain
2:33 AM 39.2 °F 33.6 °F 32.0 °F 75% 29.95 in 10.0 mi SE 8.1 mph - N/A Rain Light Rain
2:53 AM 39.2 °F 34.2 °F 30.2 °F 70% 29.94 in 10.0 mi SE 6.9 mph - 0.01 in Rain Light Rain
3:13 AM 39.2 °F 34.2 °F 32.0 °F 75% 29.93 in 10.0 mi ESE 6.9 mph - 0.01 in   Drizzle
3:33 AM 39.2 °F 35.9 °F 32.0 °F 75% 29.92 in 10.0 mi ESE 4.6 mph - 0.01 in   Light Drizzle
3:53 AM 39.2 °F 35.0 °F 32.0 °F 75% 29.92 in 10.0 mi ESE 5.8 mph - N/A   Light Drizzle
4:13 AM 39.2 °F 35.0 °F 32.0 °F 75% 29.92 in 10.0 mi ESE 5.8 mph - N/A   Light Drizzle
4:33 AM 41.0 °F 38.0 °F 33.8 °F 76% 29.91 in 10.0 mi ESE 4.6 mph - N/A   Drizzle
4:53 AM 39.2 °F 37.0 °F 33.8 °F 81% 29.91 in 10.0 mi ESE 3.5 mph - N/A   Light Drizzle
5:13 AM 39.2 °F 37.0 °F 33.8 °F 81% 29.91 in 10.0 mi ESE 3.5 mph - N/A   Light Drizzle
5:33 AM 41.0 °F 38.0 °F 33.8 °F 76% 29.90 in 10.0 mi ESE 4.6 mph - N/A   Clear
5:53 AM 41.0 °F 38.0 °F 32.0 °F 70% 29.90 in 10.0 mi SE 4.6 mph - N/A   Clear
6:13 AM 41.0 °F 37.1 °F 33.8 °F 76% 29.89 in 10.0 mi SE 5.8 mph - N/A   Clear
6:33 AM 41.0 °F 37.1 °F 32.0 °F 70% 29.89 in 10.0 mi SE 5.8 mph - N/A   Clear
6:53 AM 41.0 °F 37.1 °F 33.8 °F 76% 29.88 in 10.0 mi ESE 5.8 mph - N/A   Clear
7:13 AM 41.0 °F 36.4 °F 32.0 °F 70% 29.89 in 10.0 mi SE 6.9 mph - N/A   Clear
7:33 AM 41.0 °F 36.4 °F 33.8 °F 76% 29.88 in 10.0 mi SE 6.9 mph - N/A   Clear
7:53 AM 42.8 °F 39.3 °F 32.0 °F 66% 29.89 in 10.0 mi SSE 5.8 mph - N/A   Clear
8:13 AM 42.8 °F 38.6 °F 33.8 °F 70% 29.88 in 10.0 mi SE 6.9 mph - N/A   Clear
8:33 AM 42.8 °F 40.1 °F 33.8 °F 70% 29.88 in 10.0 mi SE 4.6 mph - N/A   Clear
8:53 AM 42.8 °F 40.1 °F 33.8 °F 70% 29.88 in 10.0 mi SE 4.6 mph - N/A   Clear
9:13 AM 42.8 °F 38.6 °F 33.8 °F 70% 29.87 in 10.0 mi SE 6.9 mph - N/A   Clear
9:33 AM 42.8 °F 41.1 °F 33.8 °F 70% 29.87 in 10.0 mi SE 3.5 mph - N/A   Clear
9:53 AM 42.8 °F 39.3 °F 33.8 °F 70% 29.86 in 10.0 mi SE 5.8 mph - N/A   Clear
10:13 AM 42.8 °F 38.6 °F 33.8 °F 70% 29.86 in 10.0 mi SSE 6.9 mph - N/A   Clear
10:33 AM 42.8 °F 38.0 °F 33.8 °F 70% 29.86 in 10.0 mi SSE 8.1 mph - N/A   Clear
10:53 AM 42.8 °F 37.0 °F 33.8 °F 70% 29.85 in 10.0 mi SSE 10.4 mph 16.1 mph N/A   Light Drizzle
11:13 AM 41.0 °F 34.3 °F 35.6 °F 81% 29.85 in 5.0 mi SSE 11.5 mph 18.4 mph N/A   Drizzle
11:33 AM 39.2 °F 31.2 °F 35.6 °F 87% 29.84 in 5.0 mi South 13.8 mph 17.3 mph 0.04 in Rain Rain
11:53 AM 39.2 °F 32.0 °F 35.6 °F 87% 29.84 in 7.0 mi South 11.5 mph 17.3 mph 0.04 in Rain Rain
12:13 PM 39.2 °F 32.5 °F 35.6 °F 87% 29.82 in 10.0 mi South 10.4 mph - 0.09 in Rain Light Rain
12:33 PM 39.2 °F 34.2 °F 37.4 °F 93% 29.81 in 4.0 mi South 6.9 mph - 0.10 in Rain Rain
12:53 PM 39.2 °F 34.2 °F 37.4 °F 93% 29.80 in 4.0 mi SSE 6.9 mph - 0.01 in Rain Light Rain
1:13 PM 39.2 °F 34.2 °F 37.4 °F 93% 29.80 in 5.0 mi South 6.9 mph - 0.05 in Rain Rain
1:33 PM 39.2 °F 32.0 °F 37.4 °F 93% 29.80 in 5.0 mi South 11.5 mph 16.1 mph 0.06 in Rain Rain
1:53 PM 39.2 °F 33.0 °F 37.4 °F 93% 29.80 in 5.0 mi South 9.2 mph - 0.02 in Rain Rain
2:14 PM 39.2 °F 31.2 °F 37.4 °F 93% 29.79 in 7.0 mi South 13.8 mph 19.6 mph 0.06 in Rain Light Rain
2:33 PM 41.0 °F 34.3 °F 37.4 °F 87% 29.79 in 10.0 mi South 11.5 mph 17.3 mph 0.06 in Rain Light Rain
2:53 PM 41.0 °F 33.9 °F 37.4 °F 87% 29.79 in 7.0 mi South 12.7 mph 19.6 mph N/A Rain Rain
3:13 PM 41.0 °F 34.3 °F 37.4 °F 87% 29.79 in 4.0 mi South 11.5 mph 19.6 mph 0.01 in Rain Light Rain
3:33 PM 39.2 °F 32.0 °F 37.4 °F 93% 29.79 in 4.0 mi South 11.5 mph - 0.02 in   Drizzle
3:53 PM 41.0 °F 33.9 °F 37.4 °F 87% 29.80 in 7.0 mi South 12.7 mph 17.3 mph N/A   Light Drizzle
4:13 PM 41.0 °F 34.7 °F 37.4 °F 87% 29.80 in 3.0 mi SSW 10.4 mph - N/A   Drizzle
4:33 PM 41.0 °F 34.7 °F 37.4 °F 87% 29.80 in 3.0 mi South 10.4 mph - N/A   Light Drizzle
4:53 PM 41.0 °F 34.7 °F 37.4 °F 87% 29.80 in 3.0 mi SSW 10.4 mph - N/A   Light Drizzle
5:13 PM 41.0 °F 34.7 °F 37.4 °F 87% 29.81 in 3.0 mi SSW 10.4 mph - N/A   Mostly Cloudy
5:33 PM 41.0 °F 35.8 °F 37.4 °F 87% 29.82 in 7.0 mi SW 8.1 mph - N/A   Mostly Cloudy
5:53 PM 41.0 °F 38.0 °F 37.4 °F 87% 29.82 in 10.0 mi WSW 4.6 mph - N/A   Scattered Clouds
6:13 PM 39.2 °F 35.9 °F 35.6 °F 87% 29.84 in 10.0 mi WSW 4.6 mph - N/A   Clear
6:33 PM 39.2 °F 37.0 °F 35.6 °F 87% 29.86 in 10.0 mi WSW 3.5 mph - N/A   Clear
6:53 PM 39.2 °F 35.0 °F 35.6 °F 87% 29.87 in 10.0 mi WSW 5.8 mph 21.9 mph N/A   Scattered Clouds
7:13 PM 39.2 °F 34.2 °F 33.8 °F 81% 29.88 in 10.0 mi SW 6.9 mph - N/A   Scattered Clouds
7:33 PM 39.2 °F 33.6 °F 33.8 °F 81% 29.89 in 10.0 mi SW 8.1 mph - N/A   Scattered Clouds
7:53 PM 37.4 °F 29.3 °F 33.8 °F 87% 29.91 in 10.0 mi WSW 12.7 mph 18.4 mph N/A   Scattered Clouds
8:13 PM 37.4 °F 30.3 °F 32.0 °F 81% 29.92 in 10.0 mi WSW 10.4 mph 17.3 mph N/A   Light Drizzle
8:33 PM 37.4 °F - 30.2 °F 75% 29.93 in 10.0 mi Calm Calm - N/A   Scattered Clouds
8:53 PM 35.6 °F 31.7 °F 30.2 °F 81% 29.95 in 10.0 mi SW 4.6 mph - N/A   Scattered Clouds
9:13 PM 35.6 °F 31.7 °F 28.4 °F 75% 29.96 in 10.0 mi WSW 4.6 mph - N/A   Clear
9:33 PM 33.8 °F - 28.4 °F 81% 29.97 in 10.0 mi Calm Calm - N/A   Clear
9:53 PM 32.0 °F - 28.4 °F 87% 29.98 in 10.0 mi Calm Calm - N/A   Clear
10:13 PM 30.2 °F - 26.6 °F 86% 29.99 in 10.0 mi Calm Calm - N/A   Clear
10:33 PM 30.2 °F 26.7 °F 28.4 °F 93% 29.99 in 10.0 mi SW 3.5 mph - N/A   Clear
10:53 PM 30.2 °F 26.7 °F 26.6 °F 86% 30.00 in 10.0 mi SW 3.5 mph - N/A   Clear
11:13 PM 30.2 °F 26.7 °F 26.6 °F 86% 30.00 in 10.0 mi SW 3.5 mph - N/A   Clear
11:33 PM 30.2 °F 25.4 °F 26.6 °F 86% 30.01 in 10.0 mi SSW 4.6 mph - N/A   Clear
11:53 PM 30.2 °F 25.4 °F 26.6 °F 86% 30.02 in 10.0 mi SW 4.6 mph - N/A   Clear